sat.trackr.live / text

‹ back to catalog

STARLINK-6059

NORAD 56814 · 2023-078AZ

PAYLOAD ACTIVE UNKNOWN

§ Identity

Operator
Country
US
Launch date
2023-05-31
Launch site
AFWTR
Launch vehicle
Mass (kg)
RCS (m²)

Purposes: comms

External: N2YO · Heavens-Above · Gunter

§ Orbital elements

Epoch: 2026-05-25T03:09:42.806016Z

Period
96.11 min
Inclination
69.9983°
Eccentricity
0.0003625
Mean motion
14.98330953 rev/d
Perigee alt
569.5 km
Apogee alt
574.6 km
Semi-major
6,950.2 km
B*
-1.8617e-5
RAAN
151.5910°
Arg perigee
260.5951°
Mean anomaly
99.4798°
Rev number
16,413

§ Raw data

STARLINK-60591 56814U 23078AZ  26145.13174544 -.00000315  00000+0 -18617-4 0  99982 56814  69.9983 151.5910 0003625 260.5951  99.4798 14.98330953164132

JSON: /api/v1/satellites/56814 · /tle

For live sub-satellite position, see the globe view (requires WebGL).

§ Visibility from observer

Set your observer location to see the next 7 days of passes ≥ 10°. The values pass through the URL so the page stays shareable.

No JS? Fill the form by hand. The geolocation button needs JavaScript.